�������l�o���
Date,Time,MP-1(��Sv/h),MP-2(��Sv/h),MP-3(��Sv/h),MP-4(��Sv/h),MP-5(��Sv/h),MP-6(��Sv/h),MP-7(��Sv/h),MP-8(��Sv/h),����,����(m/s),���J
2020/03/27,00:00,0.712,1.033,0.681,1.260,0.903,0.403,0.706,0.667,�k�k��,1.7,��
2020/03/27,00:10,0.712,1.032,0.679,1.260,0.903,0.403,0.705,0.669,�k�k��,1.7,��
2020/03/27,00:20,0.711,1.034,0.678,1.260,0.900,0.402,0.705,0.668,�k,1.7,��
2020/03/27,00:30,0.712,1.029,0.680,1.263,0.900,0.402,0.706,0.668,�k,0.9,��
2020/03/27,00:40,0.713,1.033,0.678,1.260,0.899,0.403,0.705,0.670,�k,0.6,��
2020/03/27,00:50,0.711,1.033,0.681,1.261,0.900,0.403,0.705,0.668,�k,2.3,��
2020/03/27,01:00,0.710,1.031,0.680,1.261,0.901,0.403,0.706,0.668,�k�k��,3.1,��
2020/03/27,01:10,0.713,1.032,0.679,1.263,0.900,0.402,0.705,0.669,�k�k��,5.4,��
2020/03/27,01:20,0.709,1.030,0.680,1.261,0.902,0.403,0.705,0.668,�k�k��,5.9,��
2020/03/27,01:30,0.712,1.034,0.679,1.259,0.901,0.402,0.706,0.669,�k,5.4,��
2020/03/27,01:40,0.712,1.034,0.680,1.261,0.900,0.403,0.704,0.670,�k,5.1,��
2020/03/27,01:50,0.709,1.031,0.679,1.263,0.903,0.403,0.705,0.669,�k,5.4,��
2020/03/27,02:00,0.710,1.029,0.678,1.262,0.900,0.403,0.704,0.669,�k�k��,4.9,��
2020/03/27,02:10,0.712,1.031,0.680,1.262,0.901,0.402,0.706,0.669,�k��,3.7,��
2020/03/27,02:20,0.711,1.033,0.680,1.261,0.902,0.402,0.703,0.670,�k��,2.6,��
2020/03/27,02:30,0.713,1.034,0.678,1.261,0.902,0.402,0.707,0.670,�k�k��,1.9,��
2020/03/27,02:40,0.712,1.031,0.679,1.261,0.901,0.402,0.707,0.670,�k�k��,2.8,��
2020/03/27,02:50,0.710,1.031,0.679,1.261,0.904,0.402,0.705,0.669,�k��,4.3,��
2020/03/27,03:00,0.712,1.031,0.680,1.260,0.902,0.403,0.704,0.668,�k��,3.5,��
2020/03/27,03:10,0.710,1.031,0.679,1.262,0.902,0.402,0.705,0.670,�k�k��,3.7,��
2020/03/27,03:20,0.712,1.031,0.677,1.261,0.902,0.402,0.705,0.668,�k�k��,3.9,��
2020/03/27,03:30,0.712,1.031,0.678,1.259,0.899,0.404,0.705,0.669,�k�k��,3.5,��
2020/03/27,03:40,0.711,1.028,0.679,1.261,0.900,0.402,0.705,0.669,�k�k��,3.4,��
2020/03/27,03:50,0.711,1.029,0.679,1.260,0.902,0.402,0.705,0.669,�k�k��,2.6,��
2020/03/27,04:00,0.711,1.029,0.680,1.262,0.902,0.403,0.705,0.668,�k��,2.8,��
2020/03/27,04:10,0.711,1.029,0.677,1.261,0.900,0.402,0.704,0.669,�k��,1.5,��
2020/03/27,04:20,0.711,1.030,0.679,1.260,0.900,0.402,0.706,0.669,�k��,2.6,��
2020/03/27,04:30,0.713,1.030,0.679,1.261,0.900,0.403,0.705,0.670,�k�k��,2.3,��
2020/03/27,04:40,0.711,1.028,0.677,1.260,0.900,0.401,0.705,0.669,�k�k��,2.0,��
2020/03/27,04:50,0.712,1.030,0.678,1.262,0.902,0.402,0.706,0.669,�k,1.7,��
2020/03/27,05:00,0.710,1.029,0.678,1.260,0.901,0.403,0.704,0.669,�k,2.3,��
2020/03/27,05:10,0.712,1.029,0.677,1.258,0.901,0.403,0.706,0.669,�k�k��,2.2,��
2020/03/27,05:20,0.713,1.027,0.680,1.260,0.902,0.403,0.706,0.670,�k��,2.2,��
2020/03/27,05:30,0.713,1.029,0.679,1.261,0.900,0.403,0.706,0.669,�k��,1.5,��
2020/03/27,05:40,0.711,1.029,0.678,1.262,0.900,0.403,0.706,0.668,��,0.6,��
2020/03/27,05:50,0.712,1.031,0.679,1.258,0.899,0.401,0.707,0.668,��,1.1,��
2020/03/27,06:00,0.710,1.029,0.679,1.261,0.899,0.402,0.706,0.669,��쐼,1.1,��
2020/03/27,06:10,0.711,1.031,0.677,1.260,0.900,0.403,0.705,0.669,��,1.2,��
2020/03/27,06:20,0.712,1.030,0.677,1.262,0.902,0.403,0.705,0.670,�쓌,1.5,��
2020/03/27,06:30,0.710,1.031,0.678,1.260,0.901,0.402,0.707,0.669,���k��,1.2,��
2020/03/27,06:40,0.711,1.031,0.678,1.262,0.901,0.404,0.705,0.670,�k��,1.5,��
2020/03/27,06:50,0.711,1.032,0.678,1.260,0.902,0.403,0.706,0.668,�k�k��,2.3,��
2020/03/27,07:00,0.712,1.031,0.679,1.263,0.901,0.404,0.705,0.672,�k�k��,2.9,��
2020/03/27,07:10,0.712,1.033,0.678,1.263,0.899,0.403,0.707,0.670,�k�k��,2.5,��
2020/03/27,07:20,0.712,1.032,0.677,1.262,0.902,0.404,0.705,0.669,�k,2.0,��
2020/03/27,07:30,0.712,1.034,0.677,1.260,0.898,0.402,0.707,0.670,�k�k��,1.5,��
2020/03/27,07:40,0.711,1.032,0.677,1.261,0.899,0.404,0.707,0.669,�k,0.9,��
2020/03/27,07:50,0.713,1.030,0.676,1.262,0.902,0.402,0.709,0.672,�k�k��,0.9,��
2020/03/27,08:00,0.714,1.030,0.677,1.262,0.903,0.401,0.709,0.671,�k,0.8,��
2020/03/27,08:10,0.715,1.027,0.677,1.261,0.904,0.402,0.707,0.670,�k,1.2,��
2020/03/27,08:20,0.711,1.027,0.677,1.262,0.902,0.403,0.708,0.669,�k,1.4,��
2020/03/27,08:30,0.713,1.027,0.678,1.263,0.903,0.402,0.706,0.670,�k�k��,1.4,��
2020/03/27,08:40,0.712,1.027,0.676,1.262,0.905,0.400,0.706,0.670,���k��,1.2,��
2020/03/27,08:50,0.711,1.026,0.674,1.262,0.902,0.402,0.704,0.669,��,1.2,��
2020/03/27,09:00,0.714,1.024,0.678,1.262,0.902,0.401,0.704,0.669,���k��,1.5,��
2020/03/27,09:10,0.715,1.026,0.676,1.261,0.904,0.402,0.706,0.666,��,1.9,��
2020/03/27,09:20,0.715,1.025,0.675,1.262,0.902,0.401,0.704,0.670,��,1.7,��
2020/03/27,09:30,0.715,1.024,0.678,1.262,0.903,0.402,0.706,0.669,��,1.7,��
2020/03/27,09:40,0.713,1.025,0.679,1.259,0.902,0.403,0.706,0.668,���쓌,2.6,��
2020/03/27,09:50,0.714,1.022,0.677,1.262,0.902,0.402,0.705,0.667,���쓌,3.0,��
2020/03/27,10:00,0.712,1.027,0.678,1.262,0.905,0.403,0.705,0.667,���쓌,2.3,��
2020/03/27,10:10,0.714,1.025,0.678,1.262,0.902,0.402,0.705,0.667,���쓌,1.5,��
2020/03/27,10:20,0.713,1.026,0.678,1.262,0.903,0.401,0.707,0.668,���쓌,2.8,��
2020/03/27,10:30,0.713,1.026,0.678,1.260,0.903,0.402,0.705,0.667,���쓌,2.0,��
2020/03/27,10:40,0.713,1.025,0.677,1.263,0.900,0.403,0.705,0.667,���쓌,1.7,��
2020/03/27,10:50,0.713,1.027,0.677,1.261,0.902,0.400,0.705,0.667,���쓌,2.3,��
2020/03/27,11:00,0.713,1.027,0.677,1.261,0.898,0.401,0.707,0.668,���쓌,2.2,��
2020/03/27,11:10,0.713,1.029,0.680,1.262,0.901,0.402,0.704,0.669,��,1.7,��
2020/03/27,11:20,0.713,1.025,0.679,1.264,0.901,0.402,0.706,0.668,���쓌,1.4,��
2020/03/27,11:30,0.711,1.026,0.681,1.263,0.902,0.403,0.706,0.667,�쓌,1.7,��
2020/03/27,11:40,0.714,1.029,0.682,1.263,0.902,0.402,0.705,0.669,��쓌,1.7,��
2020/03/27,11:50,0.715,1.029,0.681,1.262,0.902,0.404,0.705,0.668,���쓌,0.6,��
2020/03/27,12:00,0.715,1.031,0.679,1.262,0.902,0.403,0.706,0.669,��,2.3,��
2020/03/27,12:10,0.715,1.034,0.681,1.262,0.900,0.405,0.706,0.668,��쓌,2.0,��
2020/03/27,12:20,0.715,1.034,0.680,1.265,0.904,0.404,0.708,0.667,��,1.7,�L
2020/03/27,12:30,0.715,1.036,0.682,1.261,0.904,0.405,0.706,0.670,��쓌,2.8,�L
2020/03/27,12:40,0.714,1.034,0.680,1.263,0.902,0.405,0.705,0.668,��,2.5,�L
2020/03/27,12:50,0.716,1.032,0.680,1.262,0.901,0.406,0.707,0.671,��쓌,3.5,�L
2020/03/27,13:00,0.719,1.034,0.680,1.266,0.904,0.406,0.706,0.669,��쓌,4.0,��
2020/03/27,13:10,0.717,1.034,0.681,1.264,0.901,0.406,0.707,0.671,��쓌,3.7,��
2020/03/27,13:20,0.715,1.032,0.682,1.265,0.902,0.406,0.706,0.671,��쓌,2.0,��
2020/03/27,13:30,0.714,1.032,0.681,1.263,0.901,0.404,0.704,0.669,��,1.1,��
2020/03/27,13:40,0.716,1.036,0.682,1.265,0.903,0.405,0.707,0.669,��쓌,3.2,��
2020/03/27,13:50,0.716,1.033,0.682,1.262,0.905,0.406,0.707,0.672,��쓌,2.8,��
2020/03/27,14:00,0.718,1.034,0.683,1.263,0.904,0.405,0.707,0.671,��쓌,2.5,��
2020/03/27,14:10,0.716,1.033,0.677,1.264,0.903,0.405,0.707,0.670,��,0.9,��
2020/03/27,14:20,0.714,1.032,0.675,1.264,0.903,0.404,0.708,0.671,�쓌,2.2,��
2020/03/27,14:30,0.712,1.032,0.674,1.262,0.904,0.404,0.708,0.670,���쓌,2.3,��
2020/03/27,14:40,0.712,1.031,0.675,1.262,0.904,0.405,0.706,0.668,��,1.9,��
2020/03/27,14:50,0.713,1.032,0.675,1.264,0.902,0.405,0.707,0.667,���쓌,1.7,��
2020/03/27,15:00,0.710,1.032,0.674,1.263,0.902,0.404,0.709,0.668,���쓌,2.6,��
2020/03/27,15:10,0.711,1.033,0.673,1.262,0.903,0.403,0.707,0.669,��쓌,3.3,��
2020/03/27,15:20,0.712,1.032,0.671,1.265,0.903,0.404,0.708,0.666,�쓌,3.4,��
2020/03/27,15:30,0.713,1.033,0.674,1.265,0.904,0.402,0.707,0.669,��쓌,3.9,��
2020/03/27,15:40,0.716,1.033,0.674,1.264,0.902,0.405,0.708,0.669,�쓌,3.8,��
2020/03/27,15:50,0.714,1.035,0.676,1.264,0.903,0.405,0.707,0.670,��,1.5,��
2020/03/27,16:00,0.715,1.032,0.681,1.263,0.903,0.404,0.708,0.668,��,1.4,��
2020/03/27,16:10,0.715,1.031,0.679,1.261,0.902,0.406,0.707,0.667,��쐼,3.0,��
2020/03/27,16:20,0.713,1.034,0.680,1.262,0.903,0.406,0.706,0.668,��쐼,3.1,�L
2020/03/27,16:30,0.715,1.034,0.679,1.263,0.902,0.406,0.706,0.669,��쐼,2.6,�L
2020/03/27,16:40,0.715,1.035,0.680,1.264,0.902,0.405,0.707,0.670,��,1.8,�L
2020/03/27,16:50,0.715,1.033,0.681,1.264,0.902,0.406,0.707,0.670,���쐼,2.0,�L
2020/03/27,17:00,0.720,1.037,0.683,1.264,0.906,0.406,0.707,0.669,�k��,1.8,�L
2020/03/27,17:10,0.719,1.038,0.684,1.262,0.905,0.407,0.706,0.669,�k�k��,1.4,�L
2020/03/27,17:20,0.717,1.036,0.684,1.264,0.904,0.408,0.706,0.669,�k�k��,0.9,�L
2020/03/27,17:30,0.717,1.039,0.684,1.264,0.903,0.407,0.706,0.670,�k,0.9,�L
2020/03/27,17:40,0.717,1.036,0.685,1.265,0.903,0.407,0.708,0.671,�k�k��,0.9,�L
2020/03/27,17:50,0.717,1.034,0.683,1.261,0.905,0.405,0.708,0.672,�k�k��,2.6,�L
2020/03/27,18:00,0.718,1.037,0.682,1.262,0.906,0.406,0.707,0.672,�k�k��,2.0,�L
2020/03/27,18:10,0.718,1.036,0.683,1.263,0.904,0.407,0.707,0.671,�k�k��,2.6,�L
2020/03/27,18:20,0.717,1.035,0.682,1.261,0.904,0.405,0.706,0.671,�k,2.6,�L
2020/03/27,18:30,0.716,1.036,0.683,1.266,0.905,0.406,0.707,0.672,�k,3.9,��
2020/03/27,18:40,0.718,1.035,0.683,1.265,0.903,0.406,0.706,0.670,�k�k��,3.2,��
2020/03/27,18:50,0.716,1.035,0.684,1.263,0.905,0.405,0.709,0.671,�k�k��,2.9,��
2020/03/27,19:00,0.717,1.036,0.682,1.264,0.906,0.407,0.708,0.670,�k�k��,2.3,��
2020/03/27,19:10,0.716,1.035,0.681,1.263,0.903,0.405,0.707,0.672,�k�k��,3.2,��
2020/03/27,19:20,0.714,1.033,0.683,1.262,0.906,0.404,0.707,0.671,�k�k��,2.9,��
2020/03/27,19:30,0.717,1.035,0.681,1.262,0.903,0.404,0.710,0.670,�k�k��,2.0,��
2020/03/27,19:40,0.716,1.035,0.681,1.261,0.905,0.406,0.709,0.670,�k��,0.8,��
2020/03/27,19:50,0.716,1.035,0.682,1.260,0.904,0.406,0.708,0.672,��쓌,0.6,��
2020/03/27,20:00,0.717,1.034,0.682,1.263,0.904,0.406,0.708,0.672,��,1.5,��
2020/03/27,20:10,0.717,1.034,0.682,1.261,0.904,0.405,0.707,0.672,��,2.3,��
2020/03/27,20:20,0.716,1.035,0.681,1.261,0.902,0.405,0.706,0.673,��,3.2,��
2020/03/27,20:30,0.717,1.035,0.680,1.263,0.903,0.406,0.707,0.671,��,3.2,��
2020/03/27,20:40,0.716,1.034,0.681,1.260,0.904,0.403,0.707,0.672,��,3.2,��
2020/03/27,20:50,0.718,1.032,0.682,1.263,0.905,0.405,0.708,0.671,��쓌,5.0,��
2020/03/27,21:00,0.716,1.036,0.682,1.262,0.905,0.405,0.707,0.671,��,4.4,��
2020/03/27,21:10,0.715,1.033,0.682,1.261,0.903,0.404,0.709,0.671,��,4.3,��
2020/03/27,21:20,0.717,1.034,0.682,1.264,0.905,0.406,0.708,0.670,��,4.6,��
2020/03/27,21:30,0.716,1.033,0.681,1.263,0.904,0.406,0.708,0.670,��,4.2,��
2020/03/27,21:40,0.716,1.034,0.683,1.262,0.903,0.406,0.708,0.671,��쓌,4.7,��
2020/03/27,21:50,0.715,1.034,0.683,1.262,0.903,0.403,0.708,0.671,��,4.0,��
2020/03/27,22:00,0.717,1.034,0.682,1.262,0.903,0.404,0.707,0.672,��쓌,7.6,��
2020/03/27,22:10,0.714,1.033,0.683,1.262,0.903,0.406,0.707,0.671,��쓌,8.3,��
2020/03/27,22:20,0.718,1.033,0.684,1.261,0.905,0.406,0.707,0.672,��,8.1,��
2020/03/27,22:30,0.715,1.032,0.683,1.263,0.903,0.406,0.708,0.672,��,8.0,��
2020/03/27,22:40,0.715,1.037,0.682,1.263,0.906,0.405,0.707,0.672,��,6.5,��
2020/03/27,22:50,0.715,1.032,0.682,1.263,0.904,0.405,0.708,0.672,��,6.3,��
2020/03/27,23:00,0.718,1.035,0.683,1.262,0.905,0.406,0.708,0.671,��,5.8,��
2020/03/27,23:10,0.718,1.032,0.683,1.263,0.906,0.406,0.709,0.671,��쐼,5.4,��
2020/03/27,23:20,0.718,1.033,0.683,1.263,0.904,0.406,0.707,0.671,��,5.7,��
2020/03/27,23:30,0.717,1.033,0.683,1.264,0.902,0.405,0.709,0.669,��,7.9,��
2020/03/27,23:40,0.718,1.033,0.684,1.262,0.906,0.406,0.706,0.673,��쐼,7.5,��
2020/03/27,23:50,0.718,1.034,0.683,1.263,0.904,0.406,0.708,0.671,��쐼,6.1,��
